This demonstration page uses our WeatherBlox Daily Observations layout. Learn more.

Left ArrowRight Arrow

39.29038, -76.61219

Hourly Observations for November 2, 2016

Temp ( °F °C ) Dew Point ( °F °C ) Humidity (%) Winds ( mph kmh ) Pressure ( in mb ) Visibility ( mi km ) Precip ( " mm )
12:54 am 00:54 undefined 56 13.3 48 8.9 75 75 undefined N/A 30.31 1027 N/A 0.00 0.00
1:54 am 01:54 undefined 55 12.8 48 8.9 77 77 undefined N/A 30.30 1026 N/A 0.00 0.00
2:54 am 02:54 undefined 55 12.8 48 8.9 77 77 undefined N/A 30.30 1026 N/A 0.00 0.00
3:54 am 03:54 undefined 55 12.8 48 8.9 77 77 undefined N/A 30.29 1026 N/A 0.00 0.00
4:54 am 04:54 undefined 54 12.2 48 8.9 80 80 undefined N/A 30.29 1026 N/A 0.00 0.00
5:54 am 05:54 undefined 53 11.7 48 8.9 83 83 undefined N/A 30.29 1026 N/A 0.00 0.00
6:54 am 06:54 undefined 53 11.7 48 8.9 83 83 undefined N/A 30.29 1026 N/A 0.00 0.00
7:54 am 07:54 undefined 54 12.2 49 9.4 83 83 undefined N/A 30.29 1026 N/A 0.00 0.00
8:54 am 08:54 undefined 56 13.3 49 9.4 77 77 undefined N/A 30.29 1026 N/A 0.00 0.00
9:54 am 09:54 undefined 57 13.9 51 10.6 81 81 undefined N/A 30.30 1026 N/A 0.00 0.00
10:54 am 10:54 undefined 60 15.6 51 10.6 72 72 undefined N/A 30.29 1026 N/A 0.00 0.00
11:54 am 11:54 undefined 63 17.2 52 11.1 68 68 undefined N/A 30.27 1025 N/A 0.00 0.00
12:54 pm 12:54 undefined 65 18.3 53 11.7 66 66 undefined N/A 30.25 1024 N/A 0.00 0.00
1:54 pm 13:54 undefined 67 19.4 54 12.2 63 63 undefined N/A 30.22 1024 N/A 0.00 0.00
2:54 pm 14:54 undefined 66 18.9 55 12.8 68 68 undefined N/A 30.20 1023 N/A 0.00 0.00
3:54 pm 15:54 undefined 65 18.3 55 12.8 70 70 undefined N/A 30.20 1023 N/A 0.00 0.00
4:54 pm 16:54 undefined 65 18.3 55 12.8 70 70 undefined N/A 30.19 1022 N/A 0.00 0.00
5:54 pm 17:54 undefined 65 18.3 56 13.3 73 73 undefined N/A 30.19 1022 N/A 0.00 0.00
6:54 pm 18:54 undefined 64 17.8 56 13.3 75 75 undefined N/A 30.19 1022 N/A 0.00 0.00
7:54 pm 19:54 undefined 63 17.2 56 13.3 78 78 undefined N/A 30.18 1022 N/A 0.00 0.00
8:54 pm 20:54 undefined 62 16.7 56 13.3 80 80 undefined N/A 30.18 1022 N/A 0.00 0.00
9:54 pm 21:54 undefined 62 16.7 56 13.3 80 80 undefined N/A 30.17 1022 N/A 0.00 0.00
10:54 pm 22:54 undefined 61 16.1 56 13.3 84 84 undefined N/A 30.16 1021 N/A 0.00 0.00
11:54 pm 23:54 undefined 60 15.6 56 13.3 86 86 undefined N/A 30.15 1021 N/A 0.00 0.00

Powered by AerisWeather